Regional Weather Roundup
Issued by NWS Goodland, KS

Home | Current Version | Previous Version | Graphics & Text | Print | Product List | Glossary On
Versions: 1 2 3 4 5 6 7 8 9 10 11 12 13 14 15 16 17 18 19 20 21 22 23 24 25 26 27 28 29 30 31 32 33 34 35 36 37 38 39 40 41 42 43 44 45 46 47 48 49 50
705
ASUS43 KGLD 060508
RWRGLD

GOODLAND FORECAST AREA HOURLY WEATHER ROUNDUP
NATIONAL WEATHER SERVICE GOODLAND KS
1000 PM MST FRI FEB 05 2016

...OFFICIAL OBSERVATIONS...

CITY           SKY/WX    TMP DP  RH WIND       PRES   REMARKS
GOODLAND KS    CLEAR     19  11  70 W13       30.28S WCI   6
HILL CITY KS   CLEAR     26  20  77 NW9       30.30R
IMPERIAL NEB   CLEAR     24  13  62 NW15      30.28R WCI  11
MCCOOK NEB     CLEAR     22  17  81 W10       30.29R WCI  11
AKRON CO       CLOUDY    14   7  73 SW9       30.27S
BURLINGTON CO  CLEAR     17   7  64 W15       30.29S WCI   2
LIMON CO       CLOUDY     5  -1  76 N5        30.30F
$$

...UNOFFICIAL OBSERVATIONS...

CITY           SKY/WX    TMP DP  RH WIND       PRES   REMARKS
COLBY KS       CLEAR     19  16  86 NW10      30.29S WCI   8
GOVE KS          N/A     21  32 100 MISG        N/A
LENORA KS        N/A     25  32 100 MISG        N/A
NORTON KS      CLEAR     21  16  79 W14       30.29R WCI   8
SHARON SPRINGS   N/A     17  12  80 NW10        N/A  WCI   5
KIT CARSON CO    N/A     14   8  76 MISG        N/A
YUMA CO          N/A     15  10  80 NW6         N/A
$$




USA.gov is the U.S. government's official web portal to all federal, state and local government web resources and services.